TimeCST,TemperatureF,Dew PointF,Humidity,Sea Level PressureIn,VisibilityMPH,Wind Direction,Wind SpeedMPH,Gust SpeedMPH,PrecipitationIn,Events,Conditions,WindDirDegrees,DateUTC
12:15 AM,31.5,28.2,88,30.23,10.0,North,15.0,19.6,N/A,,Overcast,360,2013-01-17 06:15:00
12:35 AM,31.5,28.0,87,30.24,10.0,North,12.7,-,N/A,,Overcast,360,2013-01-17 06:35:00
12:55 AM,31.1,27.5,87,30.25,10.0,North,10.4,-,N/A,,Overcast,350,2013-01-17 06:55:00
1:15 AM,30.2,26.4,86,30.27,10.0,NNW,6.9,-,N/A,,Scattered Clouds,340,2013-01-17 07:15:00
1:35 AM,28.8,25.5,88,30.29,10.0,NW,6.9,-,N/A,,Clear,320,2013-01-17 07:35:00
1:55 AM,27.5,24.8,90,30.29,10.0,NW,3.5,-,N/A,,Clear,310,2013-01-17 07:55:00
2:15 AM,27.0,24.3,90,30.29,10.0,NNW,6.9,-,N/A,,Clear,330,2013-01-17 08:15:00
2:35 AM,26.8,24.1,90,30.30,10.0,NW,3.5,-,N/A,,Clear,310,2013-01-17 08:35:00
2:55 AM,26.1,22.8,88,30.31,10.0,NW,5.8,-,N/A,,Clear,320,2013-01-17 08:55:00
3:35 AM,25.7,22.1,86,30.32,10.0,NW,4.6,-,N/A,,Clear,310,2013-01-17 09:35:00
3:55 AM,25.7,22.1,86,30.32,10.0,Calm,Calm,-,N/A,,Clear,0,2013-01-17 09:55:00
4:15 AM,24.6,21.6,88,30.33,10.0,NW,5.8,-,N/A,,Clear,320,2013-01-17 10:15:00
4:35 AM,23.9,21.2,89,30.33,10.0,NW,3.5,-,N/A,,Clear,310,2013-01-17 10:35:00
4:55 AM,24.3,21.4,89,30.33,10.0,Calm,Calm,-,N/A,,Clear,0,2013-01-17 10:55:00
5:15 AM,24.4,21.9,90,30.34,10.0,NNW,5.8,-,N/A,,Clear,340,2013-01-17 11:15:00
5:35 AM,22.8,20.1,89,30.35,10.0,North,3.5,-,N/A,,Clear,360,2013-01-17 11:35:00
5:55 AM,24.3,21.9,91,30.34,10.0,NW,4.6,-,N/A,,Clear,320,2013-01-17 11:55:00
6:15 AM,23.5,21.2,91,30.35,10.0,Calm,Calm,-,N/A,,Clear,0,2013-01-17 12:15:00
6:35 AM,23.0,20.7,91,30.35,10.0,Calm,Calm,-,N/A,,Clear,0,2013-01-17 12:35:00
6:55 AM,23.0,20.5,90,30.36,10.0,NNE,3.5,-,N/A,,Clear,30,2013-01-17 12:55:00
7:15 AM,23.0,20.8,91,30.37,10.0,Calm,Calm,-,N/A,,Scattered Clouds,0,2013-01-17 13:15:00
7:35 AM,22.8,20.8,92,30.38,10.0,Calm,Calm,-,N/A,,Overcast,0,2013-01-17 13:35:00
7:55 AM,23.5,21.4,91,30.39,10.0,Calm,Calm,-,N/A,,Overcast,0,2013-01-17 13:55:00
8:15 AM,23.2,20.7,90,30.40,7.0,Calm,Calm,-,N/A,,Scattered Clouds,0,2013-01-17 14:15:00
8:35 AM,23.4,21.2,91,30.40,7.0,Calm,Calm,-,N/A,,Scattered Clouds,0,2013-01-17 14:35:00
8:55 AM,24.8,22.5,91,30.40,10.0,Calm,Calm,-,N/A,,Clear,0,2013-01-17 14:55:00
9:15 AM,25.7,23.0,89,30.42,7.0,NNW,3.5,-,N/A,,Clear,340,2013-01-17 15:15:00
9:35 AM,26.4,23.4,88,30.43,10.0,Calm,Calm,-,N/A,,Clear,0,2013-01-17 15:35:00
9:55 AM,27.3,23.9,87,30.44,10.0,Calm,Calm,-,N/A,,Clear,0,2013-01-17 15:55:00
10:15 AM,28.2,24.6,86,30.44,10.0,Calm,Calm,-,N/A,,Clear,0,2013-01-17 16:15:00
10:35 AM,29.3,25.5,86,30.43,10.0,SW,3.5,-,N/A,,Clear,220,2013-01-17 16:35:00
10:55 AM,29.8,26.1,86,30.42,10.0,SSW,5.8,-,N/A,,Clear,210,2013-01-17 16:55:00
11:15 AM,30.4,26.6,86,30.43,7.0,WSW,4.6,-,N/A,,Scattered Clouds,240,2013-01-17 17:15:00
11:35 AM,29.3,26.2,88,30.43,5.0,West,5.8,-,N/A,,Mostly Cloudy,270,2013-01-17 17:35:00
11:55 AM,28.8,26.4,91,30.42,2.5,West,4.6,-,N/A,,Overcast,260,2013-01-17 17:55:00
12:15 PM,28.8,26.6,92,30.42,1.0,Calm,Calm,-,N/A,,Overcast,0,2013-01-17 18:15:00
12:35 PM,29.7,27.9,93,30.41,1.5,WSW,3.5,-,N/A,,Overcast,250,2013-01-17 18:35:00
12:55 PM,30.2,28.4,93,30.40,2.5,SSW,4.6,-,N/A,,Overcast,210,2013-01-17 18:55:00
1:15 PM,30.4,28.6,93,30.39,1.2,SSW,6.9,-,N/A,,Overcast,200,2013-01-17 19:15:00
1:35 PM,30.2,28.4,93,30.39,3.0,SSW,5.8,-,N/A,,Overcast,200,2013-01-17 19:35:00
1:55 PM,31.1,29.3,93,30.38,1.5,SW,5.8,-,N/A,,Overcast,220,2013-01-17 19:55:00
2:15 PM,30.9,29.1,93,30.38,2.5,Calm,Calm,-,N/A,,Overcast,0,2013-01-17 20:15:00
2:35 PM,31.1,29.3,93,30.37,0.8,WSW,8.1,-,N/A,,Overcast,240,2013-01-17 20:35:00
2:55 PM,31.6,30.0,94,30.37,1.5,WSW,5.8,-,N/A,,Overcast,240,2013-01-17 20:55:00
3:15 PM,32.0,30.7,95,30.37,2.0,SW,6.9,-,N/A,,Overcast,230,2013-01-17 21:15:00
3:35 PM,32.0,30.7,95,30.37,2.0,SW,5.8,-,N/A,,Overcast,220,2013-01-17 21:35:00
3:55 PM,32.0,30.4,94,30.37,0.5,SW,5.8,-,N/A,Fog,Fog,220,2013-01-17 21:55:00
4:55 PM,31.5,30.0,94,30.38,0.2,SSW,5.8,-,N/A,Fog,Light Freezing Fog,210,2013-01-17 22:55:00
5:35 PM,30.6,29.3,95,30.37,0.2,SW,4.6,-,N/A,Fog,Light Freezing Fog,220,2013-01-17 23:35:00
7:55 PM,28.4,27.0,94,30.33,3.0,East,6.9,-,N/A,,Scattered Clouds,100,2013-01-18 01:55:00
8:15 PM,28.8,27.5,95,30.34,4.0,Calm,Calm,-,N/A,,Clear,0,2013-01-18 02:15:00
8:55 PM,28.8,27.3,94,30.33,4.0,SSE,5.8,-,N/A,,Clear,150,2013-01-18 02:55:00
9:15 PM,29.8,28.4,94,30.32,5.0,SSE,6.9,-,N/A,,Clear,150,2013-01-18 03:15:00
9:35 PM,29.7,28.4,95,30.31,5.0,SSE,8.1,-,N/A,,Clear,160,2013-01-18 03:35:00
9:55 PM,30.2,29.1,96,30.30,5.0,SSE,8.1,-,N/A,,Clear,160,2013-01-18 03:55:00
11:15 PM,31.6,30.2,94,30.27,7.0,SSE,8.1,-,N/A,,Clear,160,2013-01-18 05:15:00
11:35 PM,31.8,30.2,94,30.27,7.0,SSE,9.2,-,N/A,,Clear,160,2013-01-18 05:35:00
11:55 PM,31.8,30.2,94,30.26,7.0,SSE,9.2,-,N/A,,Clear,160,2013-01-18 05:55:00